Year,Month,Day,Hour,Minute,Value (Times are PST for temperature in C)
2009,06,04,00,00,19.40
2009,06,04,00,01,19.10
2009,06,04,00,02,18.90
2009,06,04,00,03,18.70
2009,06,04,00,04,18.50
2009,06,04,00,05,18.30
2009,06,04,00,06,18.20
2009,06,04,00,07,18.20
2009,06,04,00,08,18.30
2009,06,04,00,09,18.40
2009,06,04,00,10,18.50
2009,06,04,00,11,18.50
2009,06,04,00,12,18.60
2009,06,04,00,13,18.60
2009,06,04,00,14,18.70
2009,06,04,00,15,18.80
2009,06,04,00,16,19.00
2009,06,04,00,17,19.30
2009,06,04,00,18,19.30
2009,06,04,00,19,19.50
2009,06,04,00,20,19.60
2009,06,04,00,21,19.90
2009,06,04,00,22,20.10
2009,06,04,00,23,20.20
2009,06,04,00,24,20.60
2009,06,04,00,25,20.80
2009,06,04,00,26,21.10
2009,06,04,00,27,21.10
2009,06,04,00,28,21.00
2009,06,04,00,29,20.80
2009,06,04,00,30,20.80
2009,06,04,00,31,20.70
2009,06,04,00,32,20.90
2009,06,04,00,33,20.90
2009,06,04,00,34,20.80
2009,06,04,00,35,20.90
2009,06,04,00,36,21.10
2009,06,04,00,37,21.00
2009,06,04,00,38,20.90
2009,06,04,00,39,20.60
2009,06,04,00,40,20.30
2009,06,04,00,41,20.20
2009,06,04,00,42,20.00
2009,06,04,00,43,19.80
2009,06,04,00,44,19.80
2009,06,04,00,45,19.70
2009,06,04,00,46,19.70
2009,06,04,00,47,19.80
2009,06,04,00,48,19.90
2009,06,04,00,49,20.00
2009,06,04,00,50,20.00
2009,06,04,00,51,20.00
2009,06,04,00,52,20.00
2009,06,04,00,53,19.90
2009,06,04,00,54,19.70
2009,06,04,00,55,19.50
2009,06,04,00,56,19.30
2009,06,04,00,57,19.30
2009,06,04,00,58,19.30
2009,06,04,00,59,19.40
2009,06,04,01,00,19.40
2009,06,04,01,01,19.40
2009,06,04,01,02,19.30
2009,06,04,01,03,19.30
2009,06,04,01,04,19.30
2009,06,04,01,05,19.10
2009,06,04,01,06,19.10
2009,06,04,01,07,19.10
2009,06,04,01,08,19.10
2009,06,04,01,09,19.30
2009,06,04,01,10,19.40
2009,06,04,01,11,19.40
2009,06,04,01,12,19.50
2009,06,04,01,13,19.60
2009,06,04,01,14,19.60
2009,06,04,01,15,19.60
2009,06,04,01,16,19.60
2009,06,04,01,17,19.60
2009,06,04,01,18,19.60
2009,06,04,01,19,19.60
2009,06,04,01,20,19.60
2009,06,04,01,21,19.50
2009,06,04,01,22,19.40
2009,06,04,01,23,19.30
2009,06,04,01,24,19.20
2009,06,04,01,25,19.20
2009,06,04,01,26,19.10
2009,06,04,01,27,19.10
2009,06,04,01,28,19.00
2009,06,04,01,29,18.90
2009,06,04,01,30,18.80
2009,06,04,01,31,18.60
2009,06,04,01,32,18.30
2009,06,04,01,33,18.20
2009,06,04,01,34,18.10
2009,06,04,01,35,18.10
2009,06,04,01,36,18.00
2009,06,04,01,37,18.00
2009,06,04,01,38,18.00
2009,06,04,01,39,17.90
2009,06,04,01,40,17.80
2009,06,04,01,41,17.80
2009,06,04,01,42,17.70
2009,06,04,01,43,17.60
2009,06,04,01,44,17.50
2009,06,04,01,45,17.40
2009,06,04,01,46,17.40
2009,06,04,01,47,17.40
2009,06,04,01,48,17.40
2009,06,04,01,49,17.30
2009,06,04,01,50,17.30
2009,06,04,01,51,17.30
2009,06,04,01,52,17.30
2009,06,04,01,53,17.30
2009,06,04,01,54,17.30
2009,06,04,01,55,17.30
2009,06,04,01,56,17.30
2009,06,04,01,57,17.20
2009,06,04,01,58,17.20
2009,06,04,01,59,17.10
2009,06,04,02,00,17.00
2009,06,04,02,01,17.00
2009,06,04,02,02,17.00
2009,06,04,02,03,17.00
2009,06,04,02,04,17.10
2009,06,04,02,05,17.10
2009,06,04,02,06,17.10
2009,06,04,02,07,17.10
2009,06,04,02,08,17.10
2009,06,04,02,09,17.20
2009,06,04,02,10,17.20
2009,06,04,02,11,17.10
2009,06,04,02,12,17.10
2009,06,04,02,13,17.10
2009,06,04,02,14,17.00
2009,06,04,02,15,17.00
2009,06,04,02,16,16.90
2009,06,04,02,17,16.80
2009,06,04,02,18,16.80
2009,06,04,02,19,16.70
2009,06,04,02,20,16.80
2009,06,04,02,21,17.00
2009,06,04,02,22,17.20
2009,06,04,02,23,17.50
2009,06,04,02,24,17.70
2009,06,04,02,25,17.80
2009,06,04,02,26,17.80
2009,06,04,02,27,17.70
2009,06,04,02,28,17.60
2009,06,04,02,29,17.50
2009,06,04,02,30,17.30
2009,06,04,02,31,17.20
2009,06,04,02,32,17.10
2009,06,04,02,33,17.10
2009,06,04,02,34,17.10
2009,06,04,02,35,17.00
2009,06,04,02,36,16.90
2009,06,04,02,37,16.90
2009,06,04,02,38,16.90
2009,06,04,02,39,17.10
2009,06,04,02,40,17.30
2009,06,04,02,41,17.50
2009,06,04,02,42,17.70
2009,06,04,02,43,17.80
2009,06,04,02,44,18.10
2009,06,04,02,45,18.30
2009,06,04,02,46,18.40
2009,06,04,02,47,18.50
2009,06,04,02,48,18.60
2009,06,04,02,49,18.70
2009,06,04,02,50,18.80
2009,06,04,02,51,18.80
2009,06,04,02,52,18.70
2009,06,04,02,53,18.60
2009,06,04,02,54,18.50
2009,06,04,02,55,18.40
2009,06,04,02,56,18.30
2009,06,04,02,57,18.20
2009,06,04,02,58,18.20
2009,06,04,02,59,18.20
2009,06,04,03,00,18.20
2009,06,04,03,01,18.20
2009,06,04,03,02,18.30
2009,06,04,03,03,18.30
2009,06,04,03,04,18.30
2009,06,04,03,05,18.10
2009,06,04,03,06,18.00
2009,06,04,03,07,17.90
2009,06,04,03,08,17.70
2009,06,04,03,09,17.60
2009,06,04,03,10,17.50
2009,06,04,03,11,17.40
2009,06,04,03,12,17.50
2009,06,04,03,13,17.50
2009,06,04,03,14,17.40
2009,06,04,03,15,17.40
2009,06,04,03,16,17.40
2009,06,04,03,17,17.50
2009,06,04,03,18,17.60
2009,06,04,03,19,17.70
2009,06,04,03,20,17.90
2009,06,04,03,21,17.90
2009,06,04,03,22,17.90
2009,06,04,03,23,17.90
2009,06,04,03,24,17.90
2009,06,04,03,25,18.00
2009,06,04,03,26,18.00
2009,06,04,03,27,18.10
2009,06,04,03,28,18.20
2009,06,04,03,29,18.20
2009,06,04,03,30,18.30
2009,06,04,03,31,18.30
2009,06,04,03,32,18.30
2009,06,04,03,33,18.10
2009,06,04,03,34,17.90
2009,06,04,03,35,17.80
2009,06,04,03,36,17.60
2009,06,04,03,37,17.40
2009,06,04,03,38,17.20
2009,06,04,03,39,17.10
2009,06,04,03,40,16.90
2009,06,04,03,41,16.60
2009,06,04,03,42,16.30
2009,06,04,03,43,16.10
2009,06,04,03,44,15.90
2009,06,04,03,45,15.80
2009,06,04,03,46,15.70
2009,06,04,03,47,15.70
2009,06,04,03,48,15.60
2009,06,04,03,49,15.50
2009,06,04,03,50,15.50
2009,06,04,03,51,15.50
2009,06,04,03,52,15.40
2009,06,04,03,53,15.30
2009,06,04,03,54,15.30
2009,06,04,03,55,15.30
2009,06,04,03,56,15.30
2009,06,04,03,57,15.10
2009,06,04,03,58,15.00
2009,06,04,03,59,15.00
2009,06,04,04,00,15.00
2009,06,04,04,01,15.20
2009,06,04,04,02,15.50
2009,06,04,04,03,15.80
2009,06,04,04,04,16.20
2009,06,04,04,05,16.50
2009,06,04,04,06,16.90
2009,06,04,04,07,17.10
2009,06,04,04,08,17.30
2009,06,04,04,09,17.50
2009,06,04,04,10,17.50
2009,06,04,04,11,17.40
2009,06,04,04,12,17.30
2009,06,04,04,13,17.10
2009,06,04,04,14,16.90
2009,06,04,04,15,16.70
2009,06,04,04,16,16.50
2009,06,04,04,17,16.20
2009,06,04,04,18,16.00
2009,06,04,04,19,15.80
2009,06,04,04,20,15.60
2009,06,04,04,21,15.50
2009,06,04,04,22,15.50
2009,06,04,04,23,15.50
2009,06,04,04,24,15.40
2009,06,04,04,25,15.30
2009,06,04,04,26,15.20
2009,06,04,04,27,15.10
2009,06,04,04,28,15.00
2009,06,04,04,29,15.00
2009,06,04,04,30,15.00
2009,06,04,04,31,15.00
2009,06,04,04,32,15.00
2009,06,04,04,33,15.00
2009,06,04,04,34,15.00
2009,06,04,04,35,15.00
2009,06,04,04,36,15.00
2009,06,04,04,37,14.90
2009,06,04,04,38,15.00
2009,06,04,04,39,15.00
2009,06,04,04,40,15.00
2009,06,04,04,41,15.00
2009,06,04,04,42,14.90
2009,06,04,04,43,14.80
2009,06,04,04,44,14.70
2009,06,04,04,45,14.90
2009,06,04,04,46,15.00
2009,06,04,04,47,15.00
2009,06,04,04,48,15.20
2009,06,04,04,49,15.40
2009,06,04,04,50,15.50
2009,06,04,04,51,15.70
2009,06,04,04,52,15.90
2009,06,04,04,53,16.10
2009,06,04,04,54,16.20
2009,06,04,04,55,16.20
2009,06,04,04,56,16.20
2009,06,04,04,57,16.20
2009,06,04,04,58,16.20
2009,06,04,04,59,16.30
2009,06,04,05,00,16.40
2009,06,04,05,01,16.40
2009,06,04,05,02,16.40
2009,06,04,05,03,16.30
2009,06,04,05,04,16.10
2009,06,04,05,05,15.90
2009,06,04,05,06,15.70
2009,06,04,05,07,15.50
2009,06,04,05,08,15.30
2009,06,04,05,09,15.10
2009,06,04,05,10,15.00
2009,06,04,05,11,14.90
2009,06,04,05,12,15.00
2009,06,04,05,13,15.30
2009,06,04,05,14,15.50
2009,06,04,05,15,15.50
2009,06,04,05,16,15.60
2009,06,04,05,17,15.40
2009,06,04,05,18,15.30
2009,06,04,05,19,15.10
2009,06,04,05,20,15.00
2009,06,04,05,21,15.00
2009,06,04,05,22,14.80
2009,06,04,05,23,14.60
2009,06,04,05,24,14.60
2009,06,04,05,25,14.60
2009,06,04,05,26,14.60
2009,06,04,05,27,14.50
2009,06,04,05,28,14.40
2009,06,04,05,29,14.40
2009,06,04,05,30,14.50
2009,06,04,05,31,14.60
2009,06,04,05,32,14.50
2009,06,04,05,33,14.40
2009,06,04,05,34,14.50
2009,06,04,05,35,14.60
2009,06,04,05,36,14.60
2009,06,04,05,37,14.60
2009,06,04,05,38,14.50
2009,06,04,05,39,14.50
2009,06,04,05,40,14.50
2009,06,04,05,41,14.60
2009,06,04,05,42,14.70
2009,06,04,05,43,14.70
2009,06,04,05,44,14.80
2009,06,04,05,45,14.80
2009,06,04,05,46,14.80
2009,06,04,05,47,14.80
2009,06,04,05,48,14.70
2009,06,04,05,49,14.70
2009,06,04,05,50,14.60
2009,06,04,05,51,14.50
2009,06,04,05,52,14.50
2009,06,04,05,53,14.50
2009,06,04,05,54,14.50
2009,06,04,05,55,14.50
2009,06,04,05,56,14.50
2009,06,04,05,57,14.50
2009,06,04,05,58,14.40
2009,06,04,05,59,14.40
2009,06,04,06,00,14.40
2009,06,04,06,01,14.40
2009,06,04,06,02,14.40
2009,06,04,06,03,14.40
2009,06,04,06,04,14.40
2009,06,04,06,05,14.40
2009,06,04,06,06,14.40
2009,06,04,06,07,14.50
2009,06,04,06,08,14.50
2009,06,04,06,09,14.50
2009,06,04,06,10,14.60
2009,06,04,06,11,14.50
2009,06,04,06,12,14.50
2009,06,04,06,13,14.50
2009,06,04,06,14,14.50
2009,06,04,06,15,14.40
2009,06,04,06,16,14.40
2009,06,04,06,17,14.40
2009,06,04,06,18,14.50
2009,06,04,06,19,14.50
2009,06,04,06,20,14.60
2009,06,04,06,21,14.60
2009,06,04,06,22,14.60
2009,06,04,06,23,14.70
2009,06,04,06,24,14.80
2009,06,04,06,25,14.90
2009,06,04,06,26,15.00
2009,06,04,06,27,15.00
2009,06,04,06,28,15.10
2009,06,04,06,29,15.20
2009,06,04,06,30,15.30
2009,06,04,06,31,15.50
2009,06,04,06,32,15.80
2009,06,04,06,33,15.90
2009,06,04,06,34,16.10
2009,06,04,06,35,16.30
2009,06,04,06,36,16.40
2009,06,04,06,37,16.50
2009,06,04,06,38,16.60
2009,06,04,06,39,16.60
2009,06,04,06,40,16.60
2009,06,04,06,41,16.70
2009,06,04,06,42,16.70
2009,06,04,06,43,16.70
2009,06,04,06,44,16.70
2009,06,04,06,45,16.70
2009,06,04,06,46,16.80
2009,06,04,06,47,16.80
2009,06,04,06,48,16.90
2009,06,04,06,49,16.90
2009,06,04,06,50,17.00
2009,06,04,06,51,17.00
2009,06,04,06,52,17.00
2009,06,04,06,53,17.10
2009,06,04,06,54,17.10
2009,06,04,06,55,17.20
2009,06,04,06,56,17.30
2009,06,04,06,57,17.40
2009,06,04,06,58,17.50
2009,06,04,06,59,17.70
2009,06,04,07,00,17.90
2009,06,04,07,01,18.00
2009,06,04,07,02,18.10
2009,06,04,07,03,18.20
2009,06,04,07,04,18.20
2009,06,04,07,05,18.20
2009,06,04,07,06,18.30
2009,06,04,07,07,18.40
2009,06,04,07,08,18.40
2009,06,04,07,09,18.40
2009,06,04,07,10,18.40
2009,06,04,07,11,18.40
2009,06,04,07,12,18.50
2009,06,04,07,13,18.60
2009,06,04,07,14,18.60
2009,06,04,07,15,18.60
2009,06,04,07,16,18.60
2009,06,04,07,17,18.70
2009,06,04,07,18,18.70
2009,06,04,07,19,18.60
2009,06,04,07,20,18.60
2009,06,04,07,21,18.60
2009,06,04,07,22,18.70
2009,06,04,07,23,18.80
2009,06,04,07,24,18.80
2009,06,04,07,25,18.80
2009,06,04,07,26,18.90
2009,06,04,07,27,18.90
2009,06,04,07,28,19.10
2009,06,04,07,29,19.20
2009,06,04,07,30,19.40
2009,06,04,07,31,19.50
2009,06,04,07,32,19.70
2009,06,04,07,33,19.90
2009,06,04,07,34,20.10
2009,06,04,07,35,20.30
2009,06,04,07,36,20.50
2009,06,04,07,37,20.70
2009,06,04,07,38,20.80
2009,06,04,07,39,21.00
2009,06,04,07,40,21.10
2009,06,04,07,41,21.20
2009,06,04,07,42,21.30
2009,06,04,07,43,21.50
2009,06,04,07,44,21.50
2009,06,04,07,45,21.60
2009,06,04,07,46,21.70
2009,06,04,07,47,21.80
2009,06,04,07,48,21.80
2009,06,04,07,49,21.90
2009,06,04,07,50,22.00
2009,06,04,07,51,22.00
2009,06,04,07,52,22.10
2009,06,04,07,53,22.20
2009,06,04,07,54,22.20
2009,06,04,07,55,22.20
2009,06,04,07,56,22.30
2009,06,04,07,57,22.30
2009,06,04,07,58,22.40
2009,06,04,07,59,22.40
2009,06,04,08,00,22.50
2009,06,04,08,01,22.50
2009,06,04,08,02,22.50
2009,06,04,08,03,22.60
2009,06,04,08,04,22.60
2009,06,04,08,05,22.60
2009,06,04,08,06,22.60
2009,06,04,08,07,22.60
2009,06,04,08,08,22.60
2009,06,04,08,09,22.60
2009,06,04,08,10,22.60
2009,06,04,08,11,22.60
2009,06,04,08,12,22.60
2009,06,04,08,13,22.70
2009,06,04,08,14,22.70
2009,06,04,08,15,22.70
2009,06,04,08,16,22.70
2009,06,04,08,17,22.80
2009,06,04,08,18,22.80
2009,06,04,08,19,22.80
2009,06,04,08,20,22.80
2009,06,04,08,21,22.80
2009,06,04,08,22,22.80
2009,06,04,08,23,22.80
2009,06,04,08,24,22.80
2009,06,04,08,25,22.80
2009,06,04,08,26,22.80
2009,06,04,08,27,22.70
2009,06,04,08,28,22.60
2009,06,04,08,29,22.60
2009,06,04,08,30,22.50
2009,06,04,08,31,22.50
2009,06,04,08,32,22.50
2009,06,04,08,33,22.50
2009,06,04,08,34,22.50
2009,06,04,08,35,22.50
2009,06,04,08,36,22.50
2009,06,04,08,37,22.60
2009,06,04,08,38,22.60
2009,06,04,08,39,22.60
2009,06,04,08,40,22.60
2009,06,04,08,41,22.70
2009,06,04,08,42,22.70
2009,06,04,08,43,22.70
2009,06,04,08,44,22.70
2009,06,04,08,45,22.70
2009,06,04,08,46,22.80
2009,06,04,08,47,22.80
2009,06,04,08,48,22.80
2009,06,04,08,49,22.80
2009,06,04,08,50,22.90
2009,06,04,08,51,22.90
2009,06,04,08,52,22.90
2009,06,04,08,53,22.90
2009,06,04,08,54,22.90
2009,06,04,08,55,22.90
2009,06,04,08,56,22.90
2009,06,04,08,57,22.90
2009,06,04,08,58,22.90
2009,06,04,08,59,22.90
2009,06,04,09,00,23.00
2009,06,04,09,01,23.00
2009,06,04,09,02,23.10
2009,06,04,09,03,23.20
2009,06,04,09,04,23.30
2009,06,04,09,05,23.30
2009,06,04,09,06,23.40
2009,06,04,09,07,23.40
2009,06,04,09,08,23.50
2009,06,04,09,09,23.50
2009,06,04,09,10,23.50
2009,06,04,09,11,23.50
2009,06,04,09,12,23.50
2009,06,04,09,13,23.50
2009,06,04,09,14,23.60
2009,06,04,09,15,23.60
2009,06,04,09,16,23.60
2009,06,04,09,17,23.70
2009,06,04,09,18,23.70
2009,06,04,09,19,23.70
2009,06,04,09,20,23.70
2009,06,04,09,21,23.80
2009,06,04,09,22,23.80
2009,06,04,09,23,23.80
2009,06,04,09,24,23.80
2009,06,04,09,25,23.80
2009,06,04,09,26,23.90
2009,06,04,09,27,23.90
2009,06,04,09,28,23.90
2009,06,04,09,29,23.90
2009,06,04,09,30,24.00
2009,06,04,09,31,24.10
2009,06,04,09,32,24.10
2009,06,04,09,33,24.20
2009,06,04,09,34,24.20
2009,06,04,09,35,24.20
2009,06,04,09,36,24.30
2009,06,04,09,37,24.30
2009,06,04,09,38,24.30
2009,06,04,09,39,24.30
2009,06,04,09,40,24.40
2009,06,04,09,41,24.40
2009,06,04,09,42,24.50
2009,06,04,09,43,24.50
2009,06,04,09,44,24.50
2009,06,04,09,45,24.40
2009,06,04,09,46,24.40
2009,06,04,09,47,24.40
2009,06,04,09,48,24.50
2009,06,04,09,49,24.60
2009,06,04,09,50,24.60
2009,06,04,09,51,24.60
2009,06,04,09,52,24.60
2009,06,04,09,53,24.70
2009,06,04,09,54,24.70
2009,06,04,09,55,24.60
2009,06,04,09,56,24.60
2009,06,04,09,57,24.60
2009,06,04,09,58,24.50
2009,06,04,09,59,24.40
2009,06,04,10,00,24.40
2009,06,04,10,01,24.40
2009,06,04,10,02,24.40
2009,06,04,10,03,24.30
2009,06,04,10,04,24.30
2009,06,04,10,05,24.20
2009,06,04,10,06,24.20
2009,06,04,10,07,24.20
2009,06,04,10,08,24.20
2009,06,04,10,09,24.30
2009,06,04,10,10,24.30
2009,06,04,10,11,24.40
2009,06,04,10,12,24.40
2009,06,04,10,13,24.30
2009,06,04,10,14,24.20
2009,06,04,10,15,24.10
2009,06,04,10,16,24.00
2009,06,04,10,17,23.90
2009,06,04,10,18,23.90
2009,06,04,10,19,23.80
2009,06,04,10,20,23.80
2009,06,04,10,21,23.80
2009,06,04,10,22,23.80
2009,06,04,10,23,23.80
2009,06,04,10,24,23.80
2009,06,04,10,25,23.80
2009,06,04,10,26,23.80
2009,06,04,10,27,23.80
2009,06,04,10,28,23.80
2009,06,04,10,29,23.80
2009,06,04,10,30,23.80
2009,06,04,10,31,23.90
2009,06,04,10,32,24.00
2009,06,04,10,33,24.10
2009,06,04,10,34,24.10
2009,06,04,10,35,24.00
2009,06,04,10,36,24.00
2009,06,04,10,37,24.00
2009,06,04,10,38,24.00
2009,06,04,10,39,24.00
2009,06,04,10,40,24.00
2009,06,04,10,41,24.10
2009,06,04,10,42,24.10
2009,06,04,10,43,24.20
2009,06,04,10,44,24.20
2009,06,04,10,45,24.20
2009,06,04,10,46,24.20
2009,06,04,10,47,24.20
2009,06,04,10,48,24.20
2009,06,04,10,49,24.20
2009,06,04,10,50,24.20
2009,06,04,10,51,24.20
2009,06,04,10,52,24.20
2009,06,04,10,53,24.20
2009,06,04,10,54,24.30
2009,06,04,10,55,24.30
2009,06,04,10,56,24.40
2009,06,04,10,57,24.30
2009,06,04,10,58,24.40
2009,06,04,10,59,24.40
2009,06,04,11,00,24.40
2009,06,04,11,01,24.50
2009,06,04,11,02,24.50
2009,06,04,11,03,24.60
2009,06,04,11,04,24.50
2009,06,04,11,05,24.50
2009,06,04,11,06,24.50
2009,06,04,11,07,24.40
2009,06,04,11,08,24.40
2009,06,04,11,09,24.40
2009,06,04,11,10,24.40
2009,06,04,11,11,24.40
2009,06,04,11,12,24.40
2009,06,04,11,13,24.40
2009,06,04,11,14,24.50
2009,06,04,11,15,24.60
2009,06,04,11,16,24.70
2009,06,04,11,17,24.90
2009,06,04,11,18,25.10
2009,06,04,11,19,25.20
2009,06,04,11,20,25.30
2009,06,04,11,21,25.40
2009,06,04,11,22,25.50
2009,06,04,11,23,25.70
2009,06,04,11,24,25.70
2009,06,04,11,25,25.80
2009,06,04,11,26,25.90
2009,06,04,11,27,25.90
2009,06,04,11,28,26.00
2009,06,04,11,29,26.10
2009,06,04,11,30,26.10
2009,06,04,11,31,26.20
2009,06,04,11,32,26.20
2009,06,04,11,33,26.30
2009,06,04,11,34,26.40
2009,06,04,11,35,26.50
2009,06,04,11,36,26.60
2009,06,04,11,37,26.50
2009,06,04,11,38,26.40
2009,06,04,11,39,26.20
2009,06,04,11,40,25.90
2009,06,04,11,41,25.80
2009,06,04,11,42,25.80
2009,06,04,11,43,25.70
2009,06,04,11,44,25.70
2009,06,04,11,45,25.70
2009,06,04,11,46,25.70
2009,06,04,11,47,25.60
2009,06,04,11,48,25.60
2009,06,04,11,49,25.60
2009,06,04,11,50,25.60
2009,06,04,11,51,25.60
2009,06,04,11,52,25.60
2009,06,04,11,53,25.50
2009,06,04,11,54,25.60
2009,06,04,11,55,25.60
2009,06,04,11,56,25.60
2009,06,04,11,57,25.60
2009,06,04,11,58,25.50
2009,06,04,11,59,25.50
2009,06,04,12,00,25.60
2009,06,04,12,01,25.60
2009,06,04,12,02,25.70
2009,06,04,12,03,25.80
2009,06,04,12,04,25.80
2009,06,04,12,05,25.90
2009,06,04,12,06,26.00
2009,06,04,12,07,26.20
2009,06,04,12,08,26.30
2009,06,04,12,09,26.50
2009,06,04,12,10,26.60
2009,06,04,12,11,26.80
2009,06,04,12,12,26.80
2009,06,04,12,13,26.90
2009,06,04,12,14,26.80
2009,06,04,12,15,26.80
2009,06,04,12,16,26.70
2009,06,04,12,17,26.40
2009,06,04,12,18,26.30
2009,06,04,12,19,26.20
2009,06,04,12,20,26.30
2009,06,04,12,21,26.40
2009,06,04,12,22,26.60
2009,06,04,12,23,26.70
2009,06,04,12,24,26.90
2009,06,04,12,25,26.90
2009,06,04,12,26,27.00
2009,06,04,12,27,27.00
2009,06,04,12,28,27.10
2009,06,04,12,29,27.20
2009,06,04,12,30,27.20
2009,06,04,12,31,27.30
2009,06,04,12,32,27.50
2009,06,04,12,33,27.50
2009,06,04,12,34,27.50
2009,06,04,12,35,27.40
2009,06,04,12,36,27.30
2009,06,04,12,37,27.30
2009,06,04,12,38,27.30
2009,06,04,12,39,27.30
2009,06,04,12,40,27.30
2009,06,04,12,41,27.30
2009,06,04,12,42,27.30
2009,06,04,12,43,27.40
2009,06,04,12,44,27.50
2009,06,04,12,45,27.60
2009,06,04,12,46,27.50
2009,06,04,12,47,27.40
2009,06,04,12,48,27.30
2009,06,04,12,49,27.20
2009,06,04,12,50,26.90
2009,06,04,12,51,26.70
2009,06,04,12,52,26.50
2009,06,04,12,53,26.30
2009,06,04,12,54,26.20
2009,06,04,12,55,26.20
2009,06,04,12,56,26.20
2009,06,04,12,57,26.20
2009,06,04,12,58,26.30
2009,06,04,12,59,26.40
2009,06,04,13,00,26.50
2009,06,04,13,01,26.50
2009,06,04,13,02,26.60
2009,06,04,13,03,26.60
2009,06,04,13,04,26.60
2009,06,04,13,05,26.60
2009,06,04,13,06,26.60
2009,06,04,13,07,26.60
2009,06,04,13,08,26.60
2009,06,04,13,09,26.60
2009,06,04,13,10,26.70
2009,06,04,13,11,26.80
2009,06,04,13,12,26.90
2009,06,04,13,13,26.90
2009,06,04,13,14,26.90
2009,06,04,13,15,26.80
2009,06,04,13,16,26.80
2009,06,04,13,17,26.70
2009,06,04,13,18,26.70
2009,06,04,13,19,26.70
2009,06,04,13,20,26.80
2009,06,04,13,21,26.80
2009,06,04,13,22,26.90
2009,06,04,13,23,26.90
2009,06,04,13,24,26.90
2009,06,04,13,25,26.90
2009,06,04,13,26,26.90
2009,06,04,13,27,27.00
2009,06,04,13,28,27.00
2009,06,04,13,29,27.10
2009,06,04,13,30,27.10
2009,06,04,13,31,27.20
2009,06,04,13,32,27.20
2009,06,04,13,33,27.20
2009,06,04,13,34,27.30
2009,06,04,13,35,27.30
2009,06,04,13,36,27.30
2009,06,04,13,37,27.30
2009,06,04,13,38,27.40
2009,06,04,13,39,27.40
2009,06,04,13,40,27.40
2009,06,04,13,41,27.30
2009,06,04,13,42,27.30
2009,06,04,13,43,27.30
2009,06,04,13,44,27.30
2009,06,04,13,45,27.30
2009,06,04,13,46,27.30
2009,06,04,13,47,27.40
2009,06,04,13,48,27.40
2009,06,04,13,49,27.40
2009,06,04,13,50,27.40
2009,06,04,13,51,27.50
2009,06,04,13,52,27.50
2009,06,04,13,53,27.50
2009,06,04,13,54,27.50
2009,06,04,13,55,27.50
2009,06,04,13,56,27.40
2009,06,04,13,57,27.40
2009,06,04,13,58,27.40
2009,06,04,13,59,27.40
2009,06,04,14,00,27.30
2009,06,04,14,01,27.30
2009,06,04,14,02,27.40
2009,06,04,14,03,27.50
2009,06,04,14,04,27.60
2009,06,04,14,05,27.70
2009,06,04,14,06,27.70
2009,06,04,14,07,27.70
2009,06,04,14,08,27.60
2009,06,04,14,09,27.60
2009,06,04,14,10,27.60
2009,06,04,14,11,27.60
2009,06,04,14,12,27.70
2009,06,04,14,13,27.70
2009,06,04,14,14,27.80
2009,06,04,14,15,27.80
2009,06,04,14,16,27.80
2009,06,04,14,17,27.80
2009,06,04,14,18,27.80
2009,06,04,14,19,27.80
2009,06,04,14,20,27.80
2009,06,04,14,21,27.80
2009,06,04,14,22,27.80
2009,06,04,14,23,27.70
2009,06,04,14,24,27.80
2009,06,04,14,25,27.80
2009,06,04,14,26,27.80
2009,06,04,14,27,27.80
2009,06,04,14,28,27.90
2009,06,04,14,29,27.90
2009,06,04,14,30,28.00
2009,06,04,14,31,28.00
2009,06,04,14,32,27.90
2009,06,04,14,33,27.90
2009,06,04,14,34,28.00
2009,06,04,14,35,28.00
2009,06,04,14,36,28.00
2009,06,04,14,37,27.90
2009,06,04,14,38,27.80
2009,06,04,14,39,27.80
2009,06,04,14,40,27.80
2009,06,04,14,41,27.90
2009,06,04,14,42,27.90
2009,06,04,14,43,27.90
2009,06,04,14,44,28.00
2009,06,04,14,45,28.00
2009,06,04,14,46,28.10
2009,06,04,14,47,28.10
2009,06,04,14,48,28.10
2009,06,04,14,49,28.10
2009,06,04,14,50,28.10
2009,06,04,14,51,28.10
2009,06,04,14,52,28.20
2009,06,04,14,53,28.20
2009,06,04,14,54,28.30
2009,06,04,14,55,28.30
2009,06,04,14,56,28.30
2009,06,04,14,57,28.30
2009,06,04,14,58,28.30
2009,06,04,14,59,28.30
2009,06,04,15,00,28.30
2009,06,04,15,01,28.20
2009,06,04,15,02,28.20
2009,06,04,15,03,28.20
2009,06,04,15,04,28.30
2009,06,04,15,05,28.30
2009,06,04,15,06,28.30
2009,06,04,15,07,28.30
2009,06,04,15,08,28.40
2009,06,04,15,09,28.40
2009,06,04,15,10,28.40
2009,06,04,15,11,28.40
2009,06,04,15,12,28.40
2009,06,04,15,13,28.40
2009,06,04,15,14,28.50
2009,06,04,15,15,28.50
2009,06,04,15,16,28.60
2009,06,04,15,17,28.70
2009,06,04,15,18,28.70
2009,06,04,15,19,28.80
2009,06,04,15,20,28.80
2009,06,04,15,21,28.90
2009,06,04,15,22,29.00
2009,06,04,15,23,29.10
2009,06,04,15,24,29.10
2009,06,04,15,25,29.10
2009,06,04,15,26,29.00
2009,06,04,15,27,29.00
2009,06,04,15,28,28.90
2009,06,04,15,29,28.90
2009,06,04,15,30,28.90
2009,06,04,15,31,29.00
2009,06,04,15,32,29.10
2009,06,04,15,33,29.10
2009,06,04,15,34,29.10
2009,06,04,15,35,29.10
2009,06,04,15,36,29.10
2009,06,04,15,37,29.10
2009,06,04,15,38,29.10
2009,06,04,15,39,29.10
2009,06,04,15,40,29.20
2009,06,04,15,41,29.20
2009,06,04,15,42,29.20
2009,06,04,15,43,29.20
2009,06,04,15,44,29.20
2009,06,04,15,45,29.20
2009,06,04,15,46,29.20
2009,06,04,15,47,29.30
2009,06,04,15,48,29.40
2009,06,04,15,49,29.40
2009,06,04,15,50,29.40
2009,06,04,15,51,29.40
2009,06,04,15,52,29.40
2009,06,04,15,53,29.30
2009,06,04,15,54,29.30
2009,06,04,15,55,29.20
2009,06,04,15,56,29.20
2009,06,04,15,57,29.20
2009,06,04,15,58,29.20
2009,06,04,15,59,29.20
2009,06,04,16,00,29.20
2009,06,04,16,01,29.20
2009,06,04,16,02,29.20
2009,06,04,16,03,29.30
2009,06,04,16,04,29.30
2009,06,04,16,05,29.30
2009,06,04,16,06,29.30
2009,06,04,16,07,29.30
2009,06,04,16,08,29.40
2009,06,04,16,09,29.50
2009,06,04,16,10,29.60
2009,06,04,16,11,29.70
2009,06,04,16,12,29.80
2009,06,04,16,13,29.80
2009,06,04,16,14,29.90
2009,06,04,16,15,29.90
2009,06,04,16,16,29.90
2009,06,04,16,17,30.00
2009,06,04,16,18,30.00
2009,06,04,16,19,30.20
2009,06,04,16,20,30.30
2009,06,04,16,21,30.30
2009,06,04,16,22,30.30
2009,06,04,16,23,30.30
2009,06,04,16,24,30.20
2009,06,04,16,25,30.20
2009,06,04,16,26,30.10
2009,06,04,16,27,30.10
2009,06,04,16,28,30.10
2009,06,04,16,29,30.10
2009,06,04,16,30,30.10
2009,06,04,16,31,30.10
2009,06,04,16,32,30.20
2009,06,04,16,33,30.20
2009,06,04,16,34,30.30
2009,06,04,16,35,30.30
2009,06,04,16,36,30.40
2009,06,04,16,37,30.40
2009,06,04,16,38,30.40
2009,06,04,16,39,30.40
2009,06,04,16,40,30.40
2009,06,04,16,41,30.50
2009,06,04,16,42,30.50
2009,06,04,16,43,30.40
2009,06,04,16,44,30.40
2009,06,04,16,45,30.40
2009,06,04,16,46,30.30
2009,06,04,16,47,30.30
2009,06,04,16,48,30.30
2009,06,04,16,49,30.30
2009,06,04,16,50,30.30
2009,06,04,16,51,30.40
2009,06,04,16,52,30.40
2009,06,04,16,53,30.40
2009,06,04,16,54,30.40
2009,06,04,16,55,30.40
2009,06,04,16,56,30.40
2009,06,04,16,57,30.40
2009,06,04,16,58,30.50
2009,06,04,16,59,30.50
2009,06,04,17,00,30.60
2009,06,04,17,01,30.60
2009,06,04,17,02,30.60
2009,06,04,17,03,30.60
2009,06,04,17,04,30.60
2009,06,04,17,05,30.70
2009,06,04,17,06,30.70
2009,06,04,17,07,30.70
2009,06,04,17,08,30.80
2009,06,04,17,09,30.80
2009,06,04,17,10,30.80
2009,06,04,17,11,30.70
2009,06,04,17,12,30.70
2009,06,04,17,13,30.70
2009,06,04,17,14,30.70
2009,06,04,17,15,30.70
2009,06,04,17,16,30.70
2009,06,04,17,17,30.70
2009,06,04,17,18,30.70
2009,06,04,17,19,30.80